Location: Cheching
(60.0667°N, 164.2167°W)
Time: 14:33:09
(UTC+00:00)

STRAND 1 - Pass Details

Date: 25 January 2021
Orbit: 768 x 780 km, 98.4° (Epoch: 04 March)

Event Time Altitude Azimuth Distance (km) Brightness Sun altitude
Rises 15:10:07 0° 113° (ESE) 3,248 ? -30.9°
Reaches altitude 10° 15:12:47 10° 100° (E) 2,326 ? -30.6°
Maximum altitude 15:16:50 24° 48° (NE) 1,556 ? -30.1°
Drops below altitude 10° 15:20:56 10° 355° (N) 2,342 ? -29.6°
Enters shadow 15:22:51 - 346° (NNW) 2,999 ? -29.4°
